Info for pilots

Image

Airfield Info:

EBUL
N51 08.7 - E003 28.6
ELEV 95' / 29m
RWY 07 / 25
799m * 45m (CIV) - 2980m (MIL)
Ursel Radio 135.130
Tel Aero Club Brugge : +32(0)9 374 25 75
Tel Vliegclub Ursel : +32(0)9 374 12 90

Operational Hours
FRI: 14h00LT - SS+30 MIN
SAT, SUN and HOL: TKOF and LDG: 10h00LT - SS+30 MIN
After 20h00LT to SS+30 MIN: only LDG allowed (PN)

Local Traffic Regulations
The use of the AD is subject to PPR from the OPR;
AD given in concession to the CIV club outside MIL ACT;
Solo training flights can only be performed after two reconnaissance flights with instructor. The solo training flight must be performed within six weeks after the first reconnaissance flight;
Jet aircraft operations not allowed.

Obstacles:
trees between 10M AGL and 22M AGL, caution when crosswind:
North of the RWY, 75M from CL, along the whole length of the RWY;
South of the RWY, 75M from CL, and at THR RWY 25 from THR RWY 07 to 140M east of THR RWY 07



Image

Image

Watch out!

Flight Procedures
RWY 07 and 25 left hand circuit, 1.200 FT QNH

Image

Taxi procedures:
RWY 07 (TKOF):
taxi on the north side of the RWY to the HLDG position of RWY 07

RWY 07 (LDG):
after landing roll out to the second intersection (THR RWY 25), turn left, turn left again, taxi via the TWY to the first intersection, turn left, cross the RWY (check for landing ACFT), taxi on the south side of the RWY to the AD reporting office

RWY 25 (TKOF):
taxi on the north side of the first intersection, turn left, next turn right, taxi via the TWY to the second intersection, turn right, taxi to the HLDG of RWY 25

RWY 25 (LDG):
after landing roll out to the end of the RWY, taxi on the south side of the RWY to the AD reporting office.





Image

Taxi & Circuit?

Image
Image
Image
Image

Current Metars - Auto refresh

EBOS - Oostende
2019/05/22 10:50 EBOS 221050Z 32009KT 9999 FEW035 14/09 Q1021 NOSIG


EBAW - Antwerpen
2019/05/22 10:50 EBAW 221050Z 25006KT 180V270 9999 FEW034 17/09 Q1020 NOSIG


EBBR - Brussel
2019/05/22 10:50 EBBR 221050Z 28005KT 230V320 9999 FEW040 18/08 Q1020 NOSIG

Source : NOAA.GOV

Current TAFs - Auto refresh

EBOS - Oostende
2019/05/22 06:27 TAF EBOS 220500Z 2206/2312 VRB03KT 3500 BR FEW025 PROB30 TEMPO 2206/2208 1200 BCFG BKN003 BECMG 2208/2210 7000 NSW SCT015

EBAW - Antwerpen
2019/05/22 09:27 TAF TAF EBAW 220800Z 2209/2218 26005KT 9999 FEW025

EBBR - Brussel
2019/05/22 06:28 TAF EBBR 220500Z 2206/2312 33004KT 8000 BKN013 PROB30 TEMPO 2206/2207 4000 BR BKN009 BECMG 2207/2209 FEW012

Source : NOAA.GOV
Image

Webcam

Direction runway 07 :